sat.trackr.live / text

‹ back to catalog

STARLINK-33842

NORAD 63782 · 2025-091H

PAYLOAD ACTIVE UNKNOWN

§ Identity

Operator
Country
US
Launch date
2025-05-02
Launch site
AFETR
Launch vehicle
Mass (kg)
RCS (m²)

Purposes: comms

External: N2YO · Heavens-Above · Gunter

§ Orbital elements

Epoch: 2026-05-24T22:35:08.662272Z

Period
94.27 min
Inclination
43.0025°
Eccentricity
0.0001663
Mean motion
15.27591436 rev/d
Perigee alt
481.9 km
Apogee alt
484.2 km
Semi-major
6,861.2 km
B*
3.6375e-4
RAAN
341.9204°
Arg perigee
262.1029°
Mean anomaly
97.9634°
Rev number
6,065

§ Raw data

STARLINK-338421 63782U 25091H   26144.94107248  .00009764  00000+0  36375-3 0  99972 63782  43.0025 341.9204 0001663 262.1029  97.9634 15.27591436 60651

JSON: /api/v1/satellites/63782 · /tle

For live sub-satellite position, see the globe view (requires WebGL).

§ Visibility from observer

Set your observer location to see the next 7 days of passes ≥ 10°. The values pass through the URL so the page stays shareable.

No JS? Fill the form by hand. The geolocation button needs JavaScript.